This is the latest recevied weather packets stored in our database for station/object OE3MHU-13. If no packets are shown the sender has not sent any weather packets the latest 10 day(s).
| Time | Temp. | Humidity | Pressure | Rain* | Wind** | Luminosity | Snow |
|---|---|---|---|---|---|---|---|
| 1777378833 | 20.56° C | 34% | 1021.3 hPa | 0 mm | - | - | - |
| 1777378527 | 20.56° C | 34% | 1021.3 hPa | 0 mm | - | - | - |
| 1777378221 | 19.44° C | 34% | 1021.5 hPa | 0 mm | - | - | - |
| 1777377915 | 20.56° C | 33% | 1021.4 hPa | 0 mm | - | - | - |
| 1777377609 | 21.11° C | 33% | 1021.4 hPa | 0 mm | - | - | - |
| 1777377303 | 21.67° C | 31% | 1021.3 hPa | 0 mm | - | - | - |
| 1777376997 | 21.11° C | 33% | 1021.4 hPa | 0 mm | - | - | - |
| 1777376693 | 20.56° C | 34% | 1021.6 hPa | 0 mm | - | - | - |
| 1777376387 | 20° C | 34% | 1021.6 hPa | 0 mm | - | - | - |
| 1777376080 | 20.56° C | 33% | 1021.7 hPa | 0 mm | - | - | - |
| 1777375774 | 20.56° C | 33% | 1021.7 hPa | 0 mm | - | - | - |
| 1777375468 | 21.11° C | 32% | 1021.7 hPa | 0 mm | - | - | - |
| 1777375161 | 20° C | 34% | 1021.7 hPa | 0 mm | - | - | - |
| 1777374855 | 19.44° C | 33% | 1021.8 hPa | 0 mm | - | - | - |
| 1777374549 | 20.56° C | 34% | 1022 hPa | 0 mm | - | - | - |
| 1777374243 | 20° C | 35% | 1022 hPa | 0 mm | - | - | - |
| 1777373937 | 19.44° C | 35% | 1021.9 hPa | 0 mm | - | - | - |
| 1777373631 | 19.44° C | 35% | 1021.9 hPa | 0 mm | - | - | - |
| 1777373325 | 19.44° C | 34% | 1022 hPa | 0 mm | - | - | - |
| 1777373239 | 19.44° C | 37% | 1022.2 hPa | 0 mm | - | - | - |
| 1777373233 | 18.89° C | 35% | 1022 hPa | 0 mm | - | - | - |
| 1777373229 | 19.44° C | 34% | 1022.1 hPa | 0 mm | - | - | - |
| 1777372102 | 18.33° C | 38% | 1022.2 hPa | 0 mm | - | - | - |
| 1777371796 | 18.33° C | 36% | 1022.3 hPa | 0 mm | - | - | - |
| 1777371490 | 17.78° C | 38% | 1022.3 hPa | 0 mm | - | - | - |
* Rain latest hour (hover to see other rain measurements)
** Current wind speed in m/s (hover to see current wind gust speed)